Flag for U.S.A. Weather past 2 weeks in Frankfort, Kentucky, U.S.A.

Now
22 °F

Clear.


Feels Like: 22 °F
Forecast: 21 / 55 °F
Wind: No wind

Location: Capital City Airport

Current Time: Mar 29, 2015 at 6:06:48 AM

Latest Report: Mar 29, 2015 at 4:53 AM


Visibility: 10 mi

Pressure: 30.36 "Hg

Humidity: 75%

Dew point: 15 °F

Location of FrankfortLocation

Historic Weather in Frankfort — Graph

°F

Frankfort temperature yesterday

Maximum temperature yesterday: 40 °F (at 3:53 PM)
Minimum temperature yesterday: 21 °F (at 6:53 AM)
Average temperature yesterday: 30 °F

Past Weeks' High & Low Weather Summary

 TemperatureHumidityPressure
High74 °F (Mar 16, 2:53 PM)97% (Mar 14, 4:53 AM)30.37 "Hg (Mar 14, 4:53 AM)
Low21 °F (Mar 28, 6:53 AM)21% (Mar 18, 4:53 PM)29.78 "Hg (Mar 26, 4:53 AM)
Average47 °F61%30.10 "Hg
* Reported Mar 14 4:53 AM — Mar 29 4:53 AM, Frankfort, Weather by CustomWeather, © 2015

Note: Actual official high and low records may vary slightly from our data, if they occured in-between our weather recording intervals... More about our weather records

Advertising

Frankfort weather history for previous 24 hours

 ConditionsComfort  
Time TempWeatherWind HumidityBarometerVisibility
4:53 AM
Sun, Mar 29
22 °FClear.No wind75%30.36 "Hg10 mi
3:53 AM21 °FClear.No wind81%30.36 "Hg10 mi
2:53 AM22 °FClear.No wind75%30.37 "Hg10 mi
1:53 AM22 °FClear.No wind75%30.37 "Hg10 mi
12:53 AM24 °FClear.No wind71%30.37 "Hg10 mi
11:53 PM
Sat, Mar 28
24 °FClear.No wind71%30.34 "Hg10 mi
10:53 PM26 °FClear.No wind69%30.35 "Hg10 mi
9:53 PM30 °FClear.3 mph54%30.34 "Hg10 mi
8:53 PM31 °FSunny.No wind49%30.31 "Hg10 mi
7:53 PM37 °FSunny.3 mph34%30.30 "Hg10 mi
6:53 PM40 °FSunny.5 mph29%30.29 "Hg10 mi
5:53 PM40 °FSunny.7 mph29%30.27 "Hg10 mi
4:53 PM39 °FSunny.10 mph30%30.27 "Hg10 mi
3:53 PM40 °FSunny.9 mph28%30.27 "Hg10 mi
2:53 PM39 °FSunny.12 mph31%30.28 "Hg10 mi
1:53 PM36 °FSunny.9 mph35%30.29 "Hg10 mi
12:53 PM35 °FSunny.N/A38%30.29 "Hg10 mi
10:53 AM29 °FPassing clouds.7 mph54%30.28 "Hg10 mi
9:53 AM26 °FSunny.7 mph63%30.27 "Hg10 mi
8:53 AM23 °FSunny.7 mph65%30.25 "Hg10 mi
7:53 AM21 °FClear.3 mph68%30.22 "Hg10 mi
6:53 AM21 °FClear.6 mph65%30.19 "Hg10 mi
Weather by CustomWeather, © 2015

See weather overviewHow to use our weather pages